logo
Search for airport 
image banner adimage banner adimage banner ad
image banner ad

MRLI - La Ligia

Located in Parrita, Costa Rica

ICAO - MRLI, IATA -

Data provided by Airmate  

General information

Coordinates: N9°30'32" W84°19'60"
Elevation is 16 feet MSL.
 
View others Airports in Puntarenas

Operational data

Special qualification required
Current time UTC:
Current local time:
Weather at : MRPV - Tobias Bolanos Intl ( 54 km )
METAR: MRPV COR 242000Z 27010KT 9999 FEW020 BKN030 25/21 A3001 NOSIG
TAF: TAF MRPV 241700Z 2418/2518 29009KT 9999 SCT030 TX30/2517Z TN18/2510Z TEMPO 2419/2423 5000 TSRA SCT015CB TEMPO 2423/2503 VRB02KT RA BCFG BKN015 BECMG 2503/2506 12006KT BECMG 2515/2517 29006KT
View NOTAMs / SUP AIP / TFR affecting this airport [VIEW]
Communications frequencies: [VIEW]

Runways:

RWY identifierQFULength (ft)Width (ft)SurfaceLDA (ft)
02318233UNK
20318233UNK

Airport contact information

Address: Parrita Costa Rica

Satellite view of MRLI